| time (UTC) | temp F | wind direction | speed MPH | gust MPH | rain 1hr in | rain 24hr in | rain mn in | humidity % | barometer mb |
| 20260903040022 | 85 | 192 | 6.0 | 12.0 | 0.00 | 0.00 | 0.00 | 85 | 1013.5 |
| 20260903034607 | 85 | 207 | 4.0 | 17.0 | 0.00 | 0.00 | 0.00 | 85 | 1013.4 |
| 20260903033042 | 85 | 153 | 6.0 | 13.0 | 0.00 | 0.00 | 0.00 | 85 | 1013.4 |
| 20260903031510 | 85 | 160 | 6.0 | 12.0 | 0.00 | 0.00 | 0.00 | 85 | 1013.2 |
| 20260903030054 | 85 | 129 | 6.0 | 12.0 | 0.00 | 0.00 | 0.00 | 85 | 1013.0 |
| 20260903024526 | 85 | 192 | 8.0 | 13.0 | 0.00 | 0.00 | 0.00 | 85 | 1012.8 |
| 20260903023108 | 85 | 127 | 5.0 | 13.0 | 0.00 | 0.00 | 0.00 | 85 | 1012.7 |
| 20260903021545 | 86 | 147 | 3.0 | 10.0 | 0.00 | 0.00 | 0.00 | 83 | 1012.2 |
| 20260903020017 | 86 | 135 | 7.0 | 14.0 | 0.00 | 0.00 | 0.00 | 82 | 1012.2 |
| 20260903014601 | 86 | 100 | 4.0 | 10.0 | 0.00 | 0.00 | 0.00 | 80 | 1012.3 |
| 20260903013036 | 87 | 129 | 4.0 | 12.0 | 0.00 | 0.00 | 0.00 | 77 | 1012.1 |
| 20260903011505 | 87 | 115 | 2.0 | 13.0 | 0.00 | 0.00 | 0.00 | 76 | 1011.9 |
| 20260903010051 | 88 | 162 | 5.0 | 11.0 | 0.00 | 0.00 | 0.00 | 75 | 1011.3 |
| 20260903004533 | 89 | 131 | 10.0 | 23.0 | 0.00 | 0.00 | 0.00 | 71 | 1011.2 |
| 20260903003103 | 89 | 182 | 5.0 | 15.0 | 0.00 | 0.00 | 0.00 | 68 | 1011.3 |
| 20260903001535 | 90 | 160 | 5.0 | 14.0 | 0.00 | 0.00 | 0.00 | 67 | 1011.1 |
| 20260903000004 | 90 | 196 | 7.0 | 18.0 | 0.00 | 0.00 | 0.00 | 65 | 1010.7 |
| 20260902234554 | 91 | 164 | 5.0 | 9.0 | 0.00 | 0.00 | 0.00 | 66 | 1010.5 |
| 20260902233015 | 91 | 136 | 7.0 | 18.0 | 0.00 | 0.00 | 0.00 | 65 | 1010.6 |
| 20260902231608 | 92 | 165 | 6.0 | 11.0 | 0.00 | 0.00 | 0.00 | 64 | 1010.6 |
| 20260902230034 | 92 | 184 | 5.0 | 12.0 | 0.00 | 0.00 | 0.00 | 64 | 1010.4 |
| 20260902224501 | 93 | 162 | 6.0 | 10.0 | 0.00 | 0.00 | 0.00 | 64 | 1010.6 |
| 20260902223047 | 93 | 228 | 5.0 | 10.0 | 0.00 | 0.00 | 0.00 | 64 | 1010.5 |
| 20260902221524 | 93 | 197 | 6.0 | 14.0 | 0.00 | 0.00 | 0.00 | 65 | 1010.6 |
| 20260902214533 | 93 | 200 | 4.0 | 13.0 | 0.00 | 0.02 | 0.00 | 63 | 1010.6 |
| 20260902213004 | 93 | 141 | 5.0 | 11.0 | 0.00 | 0.02 | 0.00 | 63 | 1010.8 |
| 20260902211549 | 93 | 170 | 5.0 | 11.0 | 0.00 | 0.02 | 0.00 | 63 | 1010.8 |
| 20260902210029 | 93 | 149 | 6.0 | 13.0 | 0.00 | 0.02 | 0.00 | 63 | 1011.0 |
| 20260902204610 | 94 | 146 | 6.0 | 15.0 | 0.00 | 0.02 | 0.00 | 63 | 1011.1 |
| 20260902203048 | 94 | 219 | 3.0 | 9.0 | 0.00 | 0.02 | 0.00 | 63 | 1011.3 |
| 20260902201507 | 94 | 173 | 6.0 | 10.0 | 0.00 | 0.02 | 0.00 | 64 | 1011.4 |
| 20260902200056 | 94 | 181 | 4.0 | 9.0 | 0.00 | 0.02 | 0.00 | 64 | 1011.6 |
| 20260902194522 | 94 | 169 | 5.0 | 10.0 | 0.00 | 0.02 | 0.00 | 64 | 1011.9 |
| 20260902193106 | 94 | 279 | 3.0 | 13.0 | 0.00 | 0.02 | 0.00 | 64 | 1012.1 |
| 20260902191550 | 93 | 271 | 5.0 | 11.0 | 0.00 | 0.02 | 0.00 | 65 | 1012.2 |
| 20260902190009 | 93 | 242 | 3.0 | 8.0 | 0.00 | 0.02 | 0.00 | 66 | 1012.2 |
| 20260902184558 | 92 | 198 | 3.0 | 9.0 | 0.00 | 0.02 | 0.00 | 67 | 1012.5 |
| 20260902183023 | 92 | 198 | 5.0 | 10.0 | 0.00 | 0.02 | 0.00 | 67 | 1012.8 |
| 20260902181605 | 92 | 257 | 6.0 | 12.0 | 0.00 | 0.02 | 0.00 | 67 | 1013.1 |
| 20260902180032 | 91 | 190 | 4.0 | 14.0 | 0.00 | 0.02 | 0.00 | 70 | 1013.4 |
| 20260902174609 | 90 | 252 | 4.0 | 9.0 | 0.00 | 0.02 | 0.00 | 72 | 1013.7 |
| 20260902173036 | 89 | 276 | 4.0 | 11.0 | 0.00 | 0.02 | 0.00 | 74 | 1014.0 |
| 20260902171502 | 89 | 229 | 5.0 | 11.0 | 0.00 | 0.02 | 0.00 | 74 | 1014.2 |
| 20260902170049 | 89 | 226 | 5.0 | 14.0 | 0.00 | 0.02 | 0.00 | 75 | 1014.3 |
| 20260902164516 | 88 | 225 | 4.0 | 13.0 | 0.00 | 0.02 | 0.00 | 79 | 1014.5 |
| 20260902163137 | 87 | 264 | 2.0 | 11.0 | 0.00 | 0.02 | 0.00 | 80 | 1014.6 |
| 20260902161529 | 86 | 256 | 5.0 | 13.0 | 0.00 | 0.02 | 0.00 | 81 | 1014.6 |
| 20260902160002 | 85 | 255 | 5.0 | 10.0 | 0.00 | 0.02 | 0.00 | 82 | 1014.6 |
| 20260902154548 | 85 | 228 | 6.0 | 12.0 | 0.00 | 0.02 | 0.00 | 83 | 1014.5 |
| 20260902153025 | 85 | 259 | 6.0 | 10.0 | 0.00 | 0.02 | 0.00 | 85 | 1014.5 |
| 20260902151605 | 84 | 234 | 2.0 | 10.0 | 0.00 | 0.02 | 0.00 | 86 | 1014.4 |
| 20260902150040 | 83 | 249 | 6.0 | 12.0 | 0.00 | 0.02 | 0.00 | 87 | 1014.4 |
| 20260902144517 | 83 | 258 | 4.0 | 9.0 | 0.00 | 0.02 | 0.00 | 88 | 1014.3 |
| 20260902143047 | 83 | 240 | 3.0 | 8.0 | 0.00 | 0.02 | 0.00 | 88 | 1014.2 |
| 20260902141516 | 83 | 264 | 2.0 | 7.0 | 0.00 | 0.02 | 0.00 | 89 | 1014.3 |
| 20260902140055 | 82 | 281 | 3.0 | 10.0 | 0.00 | 0.02 | 0.00 | 89 | 1014.2 |
| 20260902134525 | 82 | 236 | 4.0 | 11.0 | 0.00 | 0.02 | 0.00 | 89 | 1014.1 |
| 20260902133111 | 82 | 220 | 6.0 | 11.0 | 0.00 | 0.02 | 0.00 | 90 | 1014.1 |
| 20260902131533 | 82 | 242 | 2.0 | 8.0 | 0.00 | 0.02 | 0.00 | 90 | 1014.1 |
| 20260902130001 | 81 | 214 | 0.0 | 9.0 | 0.00 | 0.02 | 0.00 | 91 | 1013.9 |
| 20260902124546 | 81 | 219 | 2.0 | 9.0 | 0.00 | 0.02 | 0.00 | 91 | 1013.6 |
| 20260902123021 | 81 | 222 | 2.0 | 7.0 | 0.00 | 0.02 | 0.00 | 91 | 1013.4 |
| 20260902121601 | 81 | 197 | 4.0 | 11.0 | 0.00 | 0.02 | 0.00 | 91 | 1012.8 |
| 20260902120027 | 81 | 209 | 6.0 | 11.0 | 0.00 | 0.02 | 0.00 | 90 | 1012.6 |
| 20260902114512 | 81 | 164 | 3.0 | 9.0 | 0.00 | 0.02 | 0.00 | 90 | 1012.7 |
| 20260902113047 | 81 | 220 | 5.0 | 12.0 | 0.00 | 0.02 | 0.00 | 90 | 1012.5 |
| 20260902111532 | 81 | 217 | 4.0 | 9.0 | 0.00 | 0.02 | 0.00 | 90 | 1012.7 |
| 20260902110100 | 82 | 206 | 2.0 | 9.0 | 0.00 | 0.02 | 0.00 | 89 | 1012.5 |
| 20260902104530 | 82 | 213 | 3.0 | 7.0 | 0.00 | 0.02 | 0.00 | 90 | 1012.8 |
| 20260902103006 | 82 | 237 | 4.0 | 12.0 | 0.00 | 0.02 | 0.00 | 90 | 1012.7 |
| 20260902101554 | 82 | 210 | 4.0 | 9.0 | 0.00 | 0.02 | 0.00 | 90 | 1012.7 |
| 20260902100024 | 82 | 144 | 4.0 | 9.0 | 0.00 | 0.02 | 0.00 | 90 | 1012.5 |
| 20260902094607 | 82 | 223 | 4.0 | 11.0 | 0.00 | 0.02 | 0.00 | 89 | 1012.3 |
| 20260902093041 | 82 | 240 | 4.0 | 13.0 | 0.00 | 0.02 | 0.00 | 89 | 1012.5 |
| 20260902091520 | 82 | 205 | 7.0 | 14.0 | 0.00 | 0.02 | 0.00 | 89 | 1012.5 |
| 20260902084531 | 82 | 213 | 4.0 | 14.0 | 0.00 | 0.02 | 0.00 | 88 | 1012.3 |
| 20260902083006 | 82 | 240 | 4.0 | 13.0 | 0.00 | 0.02 | 0.00 | 88 | 1012.5 |
| 20260902081555 | 82 | 262 | 5.0 | 11.0 | 0.00 | 0.02 | 0.00 | 87 | 1012.6 |
| 20260902080029 | 82 | 214 | 3.0 | 9.0 | 0.00 | 0.02 | 0.00 | 87 | 1012.5 |
| 20260902074501 | 82 | 212 | 3.0 | 10.0 | 0.00 | 0.02 | 0.00 | 87 | 1012.6 |
| 20260902073047 | 82 | 204 | 3.0 | 12.0 | 0.00 | 0.02 | 0.00 | 87 | 1012.7 |
| 20260902071521 | 82 | 233 | 4.0 | 10.0 | 0.00 | 0.02 | 0.00 | 87 | 1012.7 |
| 20260902070104 | 82 | 318 | 5.0 | 14.0 | 0.00 | 0.02 | 0.00 | 87 | 1012.6 |
| 20260902064536 | 82 | 223 | 3.0 | 7.0 | 0.00 | 0.02 | 0.00 | 86 | 1012.6 |
| 20260902063004 | 82 | 219 | 3.0 | 8.0 | 0.00 | 0.02 | 0.00 | 84 | 1012.6 |
| 20260902061549 | 82 | 239 | 3.0 | 7.0 | 0.00 | 0.02 | 0.00 | 80 | 1012.5 |
| 20260902060015 | 82 | 217 | 0.0 | 5.0 | 0.00 | 0.02 | 0.00 | 79 | 1012.4 |
| 20260902054601 | 82 | 226 | 2.0 | 5.0 | 0.00 | 0.02 | 0.00 | 80 | 1012.4 |
| 20260902053029 | 82 | 226 | 1.0 | 7.0 | 0.00 | 0.02 | 0.00 | 80 | 1012.3 |
| 20260902051607 | 81 | 264 | 2.0 | 5.0 | 0.00 | 0.02 | 0.00 | 81 | 1012.4 |
| 20260902050056 | 81 | 276 | 2.0 | 5.0 | 0.00 | 0.02 | 0.00 | 81 | 1012.6 |
| 20260902044514 | 81 | 243 | 2.0 | 5.0 | 0.00 | 0.02 | 0.02 | 82 | 1012.6 |
| 20260902043056 | 81 | 265 | 2.0 | 3.0 | 0.00 | 0.02 | 0.02 | 82 | 1012.7 |
| 20260902041529 | 81 | 243 | 0.0 | 4.0 | 0.00 | 0.02 | 0.02 | 82 | 1012.8 |